User: anonymous   Login
Location: Unspecified
(0.0000°N, 0.0000°E)
Time: 18:22:13
(UTC+00:00)
Language:

ONEWEB-0497 - Orbit

View from above orbital plane
View from above orbital plane
View from above satellite
View from above satellite

Ground track
Ground track

The orbit is defined by the following mean orbital elements,

1 54116U          26145.40534299 +.00000000 +00000-0 +13249-3 0 00006
2 54116  87.9154 309.5038 0001749  92.3197 267.8136 13.19726439    01
Epoch (UTC): 25 May 2026 09:43:41
Eccentricity: 0.0001749
inclination: 87.9154°
perigee height: 1184 km
apogee height: 1187 km
right ascension of ascending node: 309.5038°
argument of perigee: 92.3197°
revolutions per day: 13.19726439
mean anomaly at epoch: 267.8136°

The dashed part of the orbit path shows where the satellite is in the earth's shadow,  

DLR